Location: Unspecified
(39.9267°N, 0.0000°E)
Time: 14:28:29
(UTC+00:00)

ISS - Visible Passes

Search period start: 19 May 2019 00:00
Search period end: 29 May 2019 00:00
Orbit: 408 x 410 km, 51.6° (Epoch: 19 May)

Date Brightness Start Highest point End Pass type
(mag) Time Alt. Az. Time Alt. Az. Time Alt. Az.
19 May -0.2 00:07:06 10° NNW 00:08:06 11° N 00:09:06 10° NNE visible
19 May -1.0 01:43:07 10° NNW 01:45:41 20° NNE 01:48:13 10° ENE visible
19 May -3.9 03:19:14 10° WNW 03:22:31 69° SW 03:25:49 10° SE visible
19 May -3.7 19:59:22 10° SW 20:02:34 53° SE 20:05:49 10° ENE visible
19 May -1.2 21:36:39 10° W 21:39:20 23° NNW 21:42:02 10° NNE visible
19 May -0.2 23:15:47 10° NNW 23:16:51 11° N 23:17:56 10° NNE visible
20 May -0.6 00:52:28 10° NNW 00:54:32 15° NNE 00:56:36 10° NE visible
20 May -3.4 02:28:20 10° NW 02:31:37 62° NE 02:34:54 10° ESE visible
20 May -2.0 04:06:06 10° W 04:07:50 14° SW 04:09:33 10° SSW visible
20 May -2.0 20:45:14 10° W 20:48:16 33° NNW 20:51:19 10° NE visible
20 May -0.4 22:24:08 10° NW 22:25:36 12° N 22:27:06 10° NNE visible
21 May -0.4 00:01:45 10° NNW 00:03:19 13° N 00:04:28 11° NNE visible
21 May -1.6 03:19:19 13° S 03:19:19 13° S 03:19:52 10° S visible
21 May -3.1 19:54:01 10° WSW 19:57:16 57° NNW 20:00:32 10° NE visible
21 May -0.6 21:32:24 10° NW 21:34:24 15° NNW 21:36:23 10° NNE visible
21 May -0.4 23:10:57 10° NNW 23:12:04 11° N 23:13:12 10° NNE visible
22 May -0.5 00:46:49 10° NNW 00:46:51 10° NNW 00:46:51 10° NNW visible
22 May -0.9 20:40:44 10° WNW 20:43:12 19° NNW 20:45:41 10° NNE visible
22 May -0.4 22:19:49 10° NNW 22:20:48 11° N 22:21:46 10° NNE visible
22 May -0.6 23:56:06 10° NNW 23:57:11 15° N 23:57:11 15° N visible
23 May -1.4 19:49:12 10° W 19:52:04 27° NNW 19:54:57 10° NE visible
23 May -0.5 21:28:15 10° NNW 21:29:31 12° N 21:30:46 10° NNE visible
23 May -0.7 23:05:23 10° NNW 23:07:12 14° NNE 23:07:39 14° NNE visible
24 May -0.7 20:36:30 10° NW 20:38:14 13° NNW 20:39:58 10° NNE visible
24 May -0.6 22:14:37 10° NNW 22:15:56 12° N 22:17:16 10° NNE visible
24 May -0.6 23:50:23 10° NW 23:50:53 13° NNW 23:50:53 13° NNW visible
25 May -0.8 19:44:45 10° WNW 19:46:59 17° NNW 19:49:13 10° NNE visible
25 May -0.6 21:23:38 10° NNW 21:24:37 11° N 21:25:37 10° NNE visible
25 May -1.1 22:59:38 10° NNW 23:01:28 19° N 23:01:28 19° N visible
26 May -0.6 20:32:14 10° NNW 20:33:18 11° N 20:34:22 10° NNE visible
26 May -1.1 22:08:52 10° NNW 22:10:58 15° NNE 22:12:04 14° NE visible
26 May -0.5 23:44:45 10° NW 23:44:46 10° NW 23:44:46 10° NW visible
27 May -0.8 21:18:06 10° NNW 21:19:40 13° N 21:21:15 10° NE visible
27 May -1.3 22:53:53 10° NW 22:55:24 22° NNW 22:55:24 22° NNW visible
28 May -0.8 20:27:13 10° NNW 20:28:20 11° N 20:29:27 10° NNE visible
28 May -1.8 22:03:03 10° NNW 22:05:49 24° NNE 22:06:03 24° NNE visible
